Flag for U.S.A. Weather past 2 weeks in Lafayette, Louisiana, U.S.A.

Now
79 °F

Sunny.


Feels Like: 83 °F
Forecast: 79 / 96 °F
Wind: 3 mph from Southwest

Location: Lafayette Regional Airport

Current Time: Jul 30, 2015 at 8:32:39 PM

Latest Report: Jul 30, 2015 at 7:53 PM


Visibility: 10 mi

Pressure: 30.02 "Hg

Humidity: 84%

Dew point: 74 °F

Location of LafayetteLocation

Historic Weather in Lafayette — Graph

°F

Lafayette temperature yesterday

Maximum temperature yesterday: 98 °F (at 3:53 PM)
Minimum temperature yesterday: 80 °F (at 1:53 AM)
Average temperature yesterday: 88 °F

Past Weeks' High & Low Weather Summary

 TemperatureHumidityPressure
High101 °F (Jul 30, 3:53 PM)94% (Jul 28, 5:53 AM)30.09 "Hg (Jul 28, 5:53 AM)
Low77 °F (Jul 26, 4:53 AM)37% (Jul 23, 3:53 PM)29.88 "Hg (Jul 26, 2:53 AM)
Average86 °F70%29.97 "Hg
* Reported Jul 15 6:53 PM — Jul 30 6:53 PM, Lafayette, Weather by CustomWeather, © 2015

Note: Actual official high and low records may vary slightly from our data, if they occured in-between our weather recording intervals... More about our weather records

Advertising

Lafayette weather history for previous 24 hours

 ConditionsComfort  
Time TempWeatherWind HumidityBarometerVisibility
6:53 PM
Thu, Jul 30
79 °FLight rain. Partly sunny.No wind79%29.98 "Hg10 mi
5:53 PM82 °FThunderstorms. Partly sunny.8 mph67%29.97 "Hg10 mi
4:53 PM95 °FSunny.3 mph51%29.93 "Hg10 mi
3:53 PM101 °FPassing clouds.8 mph38%29.93 "Hg10 mi
2:53 PM99 °FSunny.No wind41%29.96 "Hg10 mi
1:53 PM99 °FPassing clouds.10 mph43%30.00 "Hg10 mi
12:53 PM98 °FSunny.7 mph46%30.01 "Hg10 mi
11:53 AM94 °FSunny.8 mph58%30.02 "Hg10 mi
10:53 AM93 °FSunny.9 mph60%30.02 "Hg10 mi
9:53 AM90 °FSunny.8 mph63%30.02 "Hg10 mi
8:53 AM87 °FSunny.8 mph65%30.02 "Hg10 mi
7:53 AM84 °FSunny.5 mph72%30.03 "Hg10 mi
6:53 AM81 °FPassing clouds.9 mph79%30.02 "Hg10 mi
5:53 AM80 °FPartly cloudy.7 mph81%30.01 "Hg10 mi
4:53 AM81 °FClear.No wind79%29.99 "Hg10 mi
3:53 AM81 °FClear.No wind79%29.99 "Hg10 mi
2:53 AM81 °FClear.No wind77%30.00 "Hg10 mi
1:53 AM80 °FClear.6 mph79%30.00 "Hg10 mi
12:53 AM81 °FThundershowers. Passing clouds.8 mph82%30.04 "Hg10 mi
11:53 PM
Wed, Jul 29
81 °FPartly cloudy.9 mph82%30.05 "Hg10 mi
10:53 PM83 °FPassing clouds.6 mph72%30.02 "Hg10 mi
9:53 PM85 °FClear.8 mph68%30.02 "Hg10 mi
8:53 PM87 °FSunny.8 mph61%30.00 "Hg10 mi
Weather by CustomWeather, © 2015

See weather overviewHow to use our weather pages